COSMOS 1536

Last updated on Sun Jun 21 2026 00:02:14 GMT+0000 (Coordinated Universal Time)

1 14699U 84013A 26171.04934553 .00004515 00000+0 17893-3 0 9990 2 14699 82.5443 5.9936 0012583 284.0426 75.9412 15.25076395288216
UTC large
Height (km)
Speed (km/s)
/
Latitude / Longitude
Inclination (degrees)
Orbital Period (minutes)
Azimuth
Elevation
Range (km)
Doppler Factor

Next 0 passes for location: London (51.5072 / 0.1276)

No passes found over London.
COSMOS 1536